Location: Biharia
(46.4333°N, 22.8000°E)
Time: 19:17:26
(UTC+00:00)

CSL-04 Rocket - Pass Details

Date: 04 June 2022
Orbit: 807 x 859 km, 98.9° (Epoch: 28 June)

Event Time Altitude Azimuth Distance (km) Brightness Sun altitude
Rises 19:16:57 0° 203° (SSW) 3,336 6.6 -8.8°
Reaches altitude 10° 19:19:49 10° 219° (SW) 2,417 6.0 -9.1°
Maximum altitude 19:23:51 22° 268° (W) 1,762 5.9 -9.6°
Drops below altitude 10° 19:27:58 10° 318° (NW) 2,457 7.8 -10.0°
Sets 19:30:55 0° 334° (NNW) 3,407 8.6 -10.4°
